TVF2610 LMML-LFMN

Flight info

Callsign TVF2610
Flight time 1h 49m
Altitude 30000
Route GZO M622 ADEXI DCT PAL DCT GIANO DCT POKAV DCT ABIDU DCT OKIDO DCT RUGOX DCT MADKA DCT AJO DCT BEBEV DCT OMEDA M622 LONSU
Aircraft B738/M-SDE2E3FGHIJ1RWXYZ/LB1

Departure

Time 2026-05-04 18:48
Airport Malta International Airport (LMML)

Arrival

Time 2026-05-04 20:38
Airport Nice-Côte d'Azur Airport (LFMN)
Time Latitude Longitude Altitude Speed Heading
2026-05-04 18:31 35.84905 14.49395 258 ft 0 kts 359°
2026-05-04 18:43 35.84907 14.49393 258 ft 1 kts 332°
2026-05-04 18:43 35.84901 14.49378 258 ft 4 kts 230°
2026-05-04 18:44 35.84886 14.49332 258 ft 8 kts 289°
2026-05-04 18:44 35.84898 14.49312 258 ft 10 kts 311°
2026-05-04 18:44 35.84915 14.49169 257 ft 11 kts 227°
2026-05-04 18:44 35.84913 14.49086 257 ft 11 kts 308°
2026-05-04 18:45 35.84960 14.49008 257 ft 13 kts 297°
2026-05-04 18:45 35.84996 14.48879 258 ft 19 kts 284°
2026-05-04 18:45 35.85032 14.48718 262 ft 19 kts 289°
2026-05-04 18:45 35.85093 14.48572 268 ft 20 kts 307°
2026-05-04 18:46 35.85198 14.48429 271 ft 25 kts 314°
2026-05-04 18:46 35.85335 14.48260 271 ft 29 kts 315°
2026-05-04 18:46 35.85482 14.48104 271 ft 28 kts 329°
2026-05-04 18:46 35.85643 14.48023 271 ft 16 kts 341°
2026-05-04 18:47 35.85661 14.47945 272 ft 11 kts 233°
2026-05-04 18:47 35.85632 14.47911 271 ft 3 kts 205°
2026-05-04 18:47 35.85608 14.47922 274 ft 6 kts 137°
2026-05-04 18:47 35.85493 14.48064 271 ft 55 kts 135°
2026-05-04 18:48 35.85049 14.48614 266 ft 124 kts 135°
2026-05-04 18:48 35.84314 14.49526 400 ft 165 kts 136°
2026-05-04 18:48 35.83545 14.50553 1312 ft 161 kts 135°
2026-05-04 18:48 35.82617 14.51307 2032 ft 167 kts 171°
2026-05-04 18:49 35.81411 14.51062 2486 ft 195 kts 210°
2026-05-04 18:49 35.80431 14.49771 2832 ft 219 kts 240°
2026-05-04 18:49 35.79697 14.48041 3247 ft 241 kts 242°
2026-05-04 18:49 35.78855 14.46124 3716 ft 263 kts 240°
2026-05-04 18:50 35.77937 14.44155 4633 ft 266 kts 240°
2026-05-04 18:50 35.77379 14.41988 5485 ft 272 kts 271°
2026-05-04 18:50 35.77904 14.39785 6380 ft 272 kts 305°
2026-05-04 18:50 35.79227 14.38159 7348 ft 268 kts 325°
2026-05-04 18:51 35.80817 14.36925 8208 ft 271 kts 329°
2026-05-04 18:51 35.82467 14.35764 9060 ft 275 kts 330°
2026-05-04 18:51 35.84143 14.34597 9963 ft 277 kts 330°
2026-05-04 18:51 35.85828 14.33415 10695 ft 285 kts 329°
2026-05-04 18:52 35.87620 14.32144 10875 ft 310 kts 329°
2026-05-04 18:52 35.89554 14.30760 11174 ft 330 kts 329°
2026-05-04 18:52 35.91560 14.29316 11835 ft 336 kts 329°
2026-05-04 18:52 35.93580 14.27857 12644 ft 338 kts 329°
2026-05-04 18:53 35.95611 14.26385 13448 ft 340 kts 329°
2026-05-04 18:53 35.97661 14.24897 14185 ft 343 kts 329°
2026-05-04 18:53 35.99728 14.23394 14850 ft 347 kts 328°
2026-05-04 18:53 36.01820 14.21871 15523 ft 351 kts 328°
2026-05-04 18:54 36.03214 14.20855 15952 ft 353 kts 328°
2026-05-04 18:54 36.05291 14.19201 16602 ft 357 kts 324°
2026-05-04 18:54 36.07330 14.17425 17263 ft 360 kts 323°
2026-05-04 18:54 36.10036 14.14999 18119 ft 365 kts 322°
2026-05-04 18:55 36.12099 14.13145 18709 ft 369 kts 322°
2026-05-04 18:55 36.16292 14.09400 19846 ft 375 kts 322°
2026-05-04 18:55 36.18417 14.07511 20418 ft 377 kts 322°
2026-05-04 18:56 36.19864 14.06227 20794 ft 379 kts 322°
2026-05-04 18:56 36.21989 14.04342 21333 ft 382 kts 322°
2026-05-04 18:56 36.24160 14.02416 21862 ft 385 kts 322°
2026-05-04 18:56 36.26376 14.00450 22388 ft 388 kts 322°
2026-05-04 18:57 36.28584 13.98490 22900 ft 392 kts 322°
2026-05-04 18:57 36.30777 13.96541 23383 ft 395 kts 322°
2026-05-04 18:57 36.33014 13.94552 23857 ft 397 kts 322°
2026-05-04 18:57 36.35267 13.92548 24281 ft 400 kts 322°
2026-05-04 18:58 36.37528 13.90534 24724 ft 401 kts 322°
2026-05-04 18:58 36.39799 13.88511 25196 ft 402 kts 322°
2026-05-04 18:58 36.42063 13.86493 25786 ft 399 kts 322°
2026-05-04 18:58 36.44301 13.84496 26475 ft 394 kts 322°
2026-05-04 18:59 36.46519 13.82515 27042 ft 392 kts 322°
2026-05-04 18:59 36.48732 13.80538 27547 ft 392 kts 322°
2026-05-04 18:59 36.50942 13.78561 28090 ft 390 kts 322°
2026-05-04 18:59 36.53139 13.76592 28687 ft 388 kts 322°
2026-05-04 19:00 36.55319 13.74636 29273 ft 385 kts 322°
2026-05-04 19:00 36.57489 13.72687 29814 ft 384 kts 322°
2026-05-04 19:00 36.59657 13.70737 30168 ft 387 kts 322°
2026-05-04 19:00 36.61851 13.68761 30150 ft 390 kts 322°
2026-05-04 19:01 36.66214 13.64832 30152 ft 383 kts 322°
2026-05-04 19:01 36.70529 13.60941 30167 ft 384 kts 322°
2026-05-04 19:02 36.74866 13.57022 30164 ft 386 kts 322°
2026-05-04 19:02 36.79220 13.53084 30159 ft 387 kts 322°
2026-05-04 19:03 36.83579 13.49135 30152 ft 387 kts 321°
2026-05-04 19:03 36.87934 13.45185 30154 ft 386 kts 321°
2026-05-04 19:04 36.92275 13.41242 30154 ft 385 kts 321°
2026-05-04 19:04 36.96601 13.37306 30164 ft 384 kts 321°
2026-05-04 19:05 37.00919 13.33372 30151 ft 384 kts 321°
2026-05-04 19:05 37.05229 13.29439 30153 ft 383 kts 321°
2026-05-04 19:06 37.09535 13.25503 30158 ft 383 kts 321°
2026-05-04 19:06 37.13838 13.21566 30158 ft 383 kts 321°
2026-05-04 19:07 37.18145 13.17621 30153 ft 384 kts 321°
2026-05-04 19:07 37.22460 13.13665 30170 ft 384 kts 321°
2026-05-04 19:08 37.26750 13.09726 30152 ft 385 kts 321°
2026-05-04 19:08 37.31078 13.05747 30150 ft 386 kts 321°
2026-05-04 19:09 37.33419 13.04075 30136 ft 392 kts 337°
2026-05-04 19:09 37.36077 13.03263 30157 ft 398 kts 349°
2026-05-04 19:09 37.38865 13.03282 30153 ft 405 kts
2026-05-04 19:09 37.41653 13.03862 30160 ft 407 kts
2026-05-04 19:10 37.47228 13.05176 30157 ft 408 kts
2026-05-04 19:10 37.52816 13.06472 30161 ft 408 kts
2026-05-04 19:11 37.58409 13.07724 30153 ft 408 kts
2026-05-04 19:11 37.64004 13.08960 30162 ft 408 kts
2026-05-04 19:12 37.72390 13.10811 30158 ft 408 kts
2026-05-04 19:13 37.77977 13.12047 30153 ft 407 kts
2026-05-04 19:13 37.83558 13.13284 30152 ft 407 kts
2026-05-04 19:14 37.89123 13.14521 30150 ft 405 kts
2026-05-04 19:14 37.94659 13.15753 30149 ft 403 kts
2026-05-04 19:15 38.00167 13.16948 30143 ft 399 kts
2026-05-04 19:15 38.02893 13.16818 30154 ft 388 kts 345°
2026-05-04 19:15 38.05418 13.15843 30143 ft 383 kts 332°
2026-05-04 19:16 38.09894 13.12293 30120 ft 380 kts 322°
2026-05-04 19:16 38.14249 13.08440 30130 ft 383 kts 322°
2026-05-04 19:17 38.18648 13.04573 30139 ft 386 kts 322°
2026-05-04 19:17 38.23091 13.00704 30133 ft 388 kts 323°
2026-05-04 19:18 38.27551 12.96833 30133 ft 388 kts 323°
2026-05-04 19:18 38.32010 12.92961 30130 ft 388 kts 323°
2026-05-04 19:19 38.36458 12.89094 30129 ft 386 kts 322°
2026-05-04 19:19 38.40891 12.85232 30129 ft 385 kts 322°
2026-05-04 19:20 38.45307 12.81380 30133 ft 384 kts 322°
2026-05-04 19:20 38.49720 12.77524 30137 ft 384 kts 322°
2026-05-04 19:21 38.54125 12.73669 30131 ft 384 kts 322°
2026-05-04 19:21 38.58538 12.69801 30135 ft 385 kts 322°
2026-05-04 19:22 38.62960 12.65919 30134 ft 386 kts 322°
2026-05-04 19:22 38.67393 12.62022 30149 ft 387 kts 322°
2026-05-04 19:23 38.71828 12.58117 30138 ft 387 kts 322°
2026-05-04 19:23 38.76265 12.54205 30128 ft 387 kts 322°
2026-05-04 19:24 38.80692 12.50295 30127 ft 386 kts 322°
2026-05-04 19:24 38.85108 12.46390 30125 ft 385 kts 322°
2026-05-04 19:25 38.89203 12.42038 30133 ft 381 kts 312°
2026-05-04 19:25 38.92902 12.37235 30142 ft 381 kts 311°
2026-05-04 19:26 38.96620 12.32381 30126 ft 381 kts 311°
2026-05-04 19:26 39.00357 12.27535 30126 ft 382 kts 312°
2026-05-04 19:27 39.04109 12.22686 30122 ft 382 kts 312°
2026-05-04 19:27 39.07863 12.17836 30121 ft 383 kts 312°
2026-05-04 19:28 39.11623 12.12974 30123 ft 383 kts 312°
2026-05-04 19:28 39.15380 12.08107 30120 ft 383 kts 312°
2026-05-04 19:29 39.19135 12.03235 30133 ft 383 kts 311°
2026-05-04 19:29 39.22887 11.98359 30120 ft 383 kts 311°
2026-05-04 19:30 39.26641 11.93472 30119 ft 383 kts 311°
2026-05-04 19:30 39.30391 11.88583 30115 ft 383 kts 311°
2026-05-04 19:31 39.34133 11.83696 30114 ft 383 kts 311°
2026-05-04 19:31 39.37872 11.78805 30115 ft 382 kts 311°
2026-05-04 19:32 39.41610 11.73909 30112 ft 382 kts 311°
2026-05-04 19:32 39.45344 11.69008 30123 ft 383 kts 311°
2026-05-04 19:33 39.49080 11.64098 30114 ft 383 kts 311°
2026-05-04 19:33 39.52820 11.59174 30106 ft 383 kts 311°
2026-05-04 19:34 39.56558 11.54245 30109 ft 384 kts 311°
2026-05-04 19:34 39.60296 11.49306 30105 ft 384 kts 311°
2026-05-04 19:35 39.64032 11.44365 30100 ft 384 kts 311°
2026-05-04 19:35 39.67762 11.39421 30104 ft 383 kts 311°
2026-05-04 19:36 39.71491 11.34471 30113 ft 384 kts 311°
2026-05-04 19:36 39.75198 11.29543 30098 ft 384 kts 310°
2026-05-04 19:37 39.78953 11.24541 30102 ft 384 kts 310°
2026-05-04 19:37 39.82658 11.19598 30100 ft 384 kts 310°
2026-05-04 19:38 39.86392 11.14609 30101 ft 385 kts 310°
2026-05-04 19:38 39.90125 11.09613 30101 ft 385 kts 310°
2026-05-04 19:39 39.93856 11.04611 30104 ft 385 kts 310°
2026-05-04 19:39 39.97586 10.99604 30100 ft 385 kts 310°
2026-05-04 19:40 40.01310 10.94594 30094 ft 384 kts 310°
2026-05-04 19:40 40.05026 10.89588 30093 ft 383 kts 310°
2026-05-04 19:41 40.08728 10.84592 30087 ft 383 kts 310°
2026-05-04 19:41 40.12427 10.79591 30085 ft 382 kts 310°
2026-05-04 19:42 40.16121 10.74589 30090 ft 382 kts 310°
2026-05-04 19:42 40.19810 10.69584 30088 ft 382 kts 310°
2026-05-04 19:43 40.22878 10.65417 30085 ft 383 kts 310°
2026-05-04 19:43 40.26568 10.60396 30085 ft 383 kts 310°
2026-05-04 19:44 40.30261 10.55363 30097 ft 383 kts 310°
2026-05-04 19:44 40.33953 10.50323 30083 ft 383 kts 310°
2026-05-04 19:45 40.37641 10.45280 30081 ft 383 kts 310°
2026-05-04 19:45 40.41322 10.40238 30076 ft 382 kts 310°
2026-05-04 19:46 40.44995 10.35199 30087 ft 382 kts 310°
2026-05-04 19:46 40.48666 10.30153 30074 ft 382 kts 310°
2026-05-04 19:47 40.52329 10.25110 30071 ft 381 kts 310°
2026-05-04 19:47 40.55989 10.20063 30078 ft 381 kts 309°
2026-05-04 19:48 40.59646 10.15010 30072 ft 381 kts 309°
2026-05-04 19:48 40.63299 10.09955 30064 ft 381 kts 309°
2026-05-04 19:49 40.66951 10.04893 30064 ft 381 kts 309°
2026-05-04 19:49 40.70599 9.99828 30074 ft 381 kts 309°
2026-05-04 19:50 40.74252 9.94746 30059 ft 382 kts 309°
2026-05-04 19:50 40.77908 9.89651 30059 ft 383 kts 309°
2026-05-04 19:51 40.81544 9.84578 30056 ft 383 kts 309°
2026-05-04 19:51 40.85407 9.79690 30061 ft 387 kts 315°
2026-05-04 19:52 40.89579 9.75177 30048 ft 388 kts 316°
2026-05-04 19:52 40.93765 9.70663 30050 ft 388 kts 316°
2026-05-04 19:53 40.97936 9.66103 30053 ft 389 kts 314°
2026-05-04 19:53 41.02103 9.61511 30055 ft 390 kts 314°
2026-05-04 19:54 41.06279 9.56896 30043 ft 392 kts 314°
2026-05-04 19:54 41.10464 9.52264 30047 ft 392 kts 314°
2026-05-04 19:55 41.14649 9.47625 30049 ft 392 kts 314°
2026-05-04 19:55 41.18827 9.42985 30060 ft 391 kts 313°
2026-05-04 19:56 41.22980 9.38367 30047 ft 387 kts 313°
2026-05-04 19:56 41.27086 9.33784 30037 ft 384 kts 313°
2026-05-04 19:57 41.31148 9.29223 30040 ft 381 kts 313°
2026-05-04 19:57 41.35200 9.24676 30046 ft 381 kts 313°
2026-05-04 19:58 41.39266 9.20135 30048 ft 382 kts 313°
2026-05-04 19:58 41.43353 9.15565 30053 ft 385 kts 313°
2026-05-04 19:59 41.47457 9.10967 30054 ft 386 kts 313°
2026-05-04 19:59 41.51575 9.06344 30045 ft 387 kts 313°
2026-05-04 20:00 41.55699 9.01705 30049 ft 389 kts 313°
2026-05-04 20:00 41.59841 8.97037 30047 ft 390 kts 312°
2026-05-04 20:01 41.63983 8.92363 30041 ft 390 kts 312°
2026-05-04 20:01 41.68125 8.87680 30059 ft 390 kts 312°
2026-05-04 20:02 41.72260 8.82996 30046 ft 389 kts 312°
2026-05-04 20:02 41.76387 8.78326 30048 ft 389 kts 313°
2026-05-04 20:03 41.81032 8.74486 30053 ft 399 kts 323°
2026-05-04 20:03 41.85924 8.70974 30059 ft 399 kts 324°
2026-05-04 20:04 41.90815 8.67429 30054 ft 400 kts 323°
2026-05-04 20:04 41.95715 8.63834 30067 ft 403 kts 323°
2026-05-04 20:05 42.00610 8.60230 29847 ft 397 kts 323°
2026-05-04 20:05 42.03007 8.58465 29596 ft 388 kts 323°
2026-05-04 20:05 42.05369 8.56723 29200 ft 385 kts 323°
2026-05-04 20:05 42.07699 8.54999 28829 ft 381 kts 323°
2026-05-04 20:06 42.10008 8.53287 28466 ft 377 kts 323°
2026-05-04 20:06 42.12300 8.51587 28070 ft 374 kts 324°
2026-05-04 20:06 42.14573 8.49899 27689 ft 372 kts 324°
2026-05-04 20:06 42.16831 8.48222 27282 ft 370 kts 324°
2026-05-04 20:07 42.19072 8.46558 26942 ft 366 kts 324°
2026-05-04 20:07 42.21296 8.44906 26570 ft 364 kts 324°
2026-05-04 20:07 42.23506 8.43257 26201 ft 362 kts 324°
2026-05-04 20:07 42.25703 8.41609 25830 ft 360 kts 325°
2026-05-04 20:08 42.27889 8.39967 25465 ft 359 kts 325°
2026-05-04 20:08 42.30067 8.38332 25109 ft 357 kts 325°
2026-05-04 20:08 42.32236 8.36702 24746 ft 356 kts 326°
2026-05-04 20:08 42.34404 8.35075 24361 ft 356 kts 327°
2026-05-04 20:09 42.36572 8.33451 24010 ft 356 kts 327°
2026-05-04 20:09 42.38735 8.31831 23636 ft 355 kts 327°
2026-05-04 20:09 42.40895 8.30212 23234 ft 354 kts 327°
2026-05-04 20:09 42.43042 8.28602 22846 ft 352 kts 327°
2026-05-04 20:10 42.45179 8.26997 22475 ft 350 kts 327°
2026-05-04 20:10 42.47299 8.25404 22119 ft 348 kts 327°
2026-05-04 20:10 42.49407 8.23818 21764 ft 345 kts 327°
2026-05-04 20:10 42.51504 8.22239 21423 ft 343 kts 327°
2026-05-04 20:11 42.53585 8.20670 21077 ft 341 kts 327°
2026-05-04 20:11 42.55655 8.19109 20737 ft 340 kts 327°
2026-05-04 20:11 42.57688 8.17574 20404 ft 338 kts 327°
2026-05-04 20:11 42.59737 8.16026 20064 ft 337 kts 327°
2026-05-04 20:12 42.61778 8.14482 19727 ft 335 kts 327°
2026-05-04 20:12 42.63811 8.12943 19389 ft 334 kts 327°
2026-05-04 20:12 42.65842 8.11406 19047 ft 333 kts 327°
2026-05-04 20:12 42.67863 8.09874 18705 ft 333 kts 327°
2026-05-04 20:13 42.69882 8.08342 18363 ft 332 kts 327°
2026-05-04 20:13 42.71898 8.06812 17986 ft 332 kts 327°
2026-05-04 20:13 42.73910 8.05285 17632 ft 330 kts 327°
2026-05-04 20:13 42.75910 8.03766 17294 ft 328 kts 327°
2026-05-04 20:14 42.78046 8.02666 16938 ft 333 kts 349°
2026-05-04 20:14 42.80347 8.02644 16807 ft 331 kts
2026-05-04 20:14 42.82641 8.02960 16579 ft 333 kts
2026-05-04 20:14 42.84959 8.03345 16382 ft 337 kts
2026-05-04 20:15 42.87299 8.03740 16166 ft 339 kts
2026-05-04 20:15 42.89637 8.04126 15944 ft 338 kts
2026-05-04 20:15 42.91964 8.04499 15731 ft 336 kts
2026-05-04 20:15 42.94280 8.04860 15522 ft 334 kts
2026-05-04 20:16 42.96581 8.05212 15318 ft 332 kts
2026-05-04 20:16 42.98875 8.05560 15111 ft 331 kts
2026-05-04 20:16 43.01159 8.05905 14907 ft 330 kts
2026-05-04 20:16 43.03434 8.06247 14703 ft 328 kts
2026-05-04 20:17 43.05700 8.06588 14500 ft 327 kts
2026-05-04 20:17 43.07961 8.06928 14297 ft 326 kts
2026-05-04 20:17 43.10217 8.07267 14094 ft 326 kts
2026-05-04 20:17 43.12465 8.07606 13892 ft 325 kts
2026-05-04 20:18 43.14711 8.07944 13682 ft 324 kts
2026-05-04 20:18 43.16950 8.08281 13459 ft 323 kts
2026-05-04 20:18 43.19179 8.08618 13241 ft 322 kts
2026-05-04 20:18 43.21404 8.08954 13011 ft 321 kts
2026-05-04 20:19 43.23622 8.09289 12796 ft 320 kts
2026-05-04 20:19 43.25834 8.09623 12590 ft 319 kts
2026-05-04 20:19 43.28039 8.09724 12362 ft 316 kts 348°
2026-05-04 20:19 43.30047 8.08650 12186 ft 308 kts 323°
2026-05-04 20:20 43.31581 8.06668 11998 ft 301 kts 302°
2026-05-04 20:20 43.32655 8.04225 11829 ft 298 kts 296°
2026-05-04 20:20 43.33656 8.01735 11636 ft 297 kts 296°
2026-05-04 20:20 43.34658 7.99253 11446 ft 297 kts 296°
2026-05-04 20:21 43.35670 7.96778 11268 ft 297 kts 295°
2026-05-04 20:21 43.36686 7.94304 11081 ft 298 kts 295°
2026-05-04 20:21 43.38721 7.89367 10702 ft 300 kts 295°
2026-05-04 20:22 43.39763 7.86837 10523 ft 301 kts 295°
2026-05-04 20:22 43.40793 7.84333 10326 ft 302 kts 296°
2026-05-04 20:22 43.41813 7.81808 10142 ft 301 kts 291°
2026-05-04 20:22 43.42278 7.79092 9936 ft 286 kts 264°
2026-05-04 20:23 43.42190 7.76412 9770 ft 280 kts 264°
2026-05-04 20:23 43.42148 7.73801 9599 ft 274 kts 264°
2026-05-04 20:23 43.42124 7.71191 9412 ft 272 kts 265°
2026-05-04 20:23 43.42123 7.68583 9250 ft 274 kts 268°
2026-05-04 20:24 43.42102 7.65965 9081 ft 274 kts 266°
2026-05-04 20:24 43.42106 7.63335 8913 ft 275 kts 267°
2026-05-04 20:24 43.42127 7.60698 8743 ft 277 kts 268°
2026-05-04 20:24 43.42146 7.58046 8576 ft 277 kts 265°
2026-05-04 20:25 43.42091 7.55385 8397 ft 279 kts 268°
2026-05-04 20:25 43.42121 7.52711 8222 ft 280 kts 266°
2026-05-04 20:25 43.42090 7.50026 8047 ft 281 kts 264°
2026-05-04 20:25 43.42054 7.47330 7874 ft 283 kts 269°
2026-05-04 20:26 43.42138 7.44642 7691 ft 281 kts 271°
2026-05-04 20:26 43.42186 7.41978 7509 ft 276 kts 266°
2026-05-04 20:26 43.42235 7.39357 7343 ft 273 kts 271°
2026-05-04 20:26 43.42345 7.36756 7172 ft 271 kts 267°
2026-05-04 20:27 43.42362 7.34166 7011 ft 271 kts 267°
2026-05-04 20:27 43.42332 7.31566 6845 ft 273 kts 266°
2026-05-04 20:27 43.42346 7.28945 6682 ft 275 kts 265°
2026-05-04 20:27 43.42325 7.26298 6516 ft 278 kts 266°
2026-05-04 20:28 43.41944 7.23737 6328 ft 273 kts 241°
2026-05-04 20:28 43.40940 7.21536 6088 ft 268 kts 231°
2026-05-04 20:28 43.39880 7.19530 6057 ft 250 kts 231°
2026-05-04 20:28 43.38863 7.17682 5939 ft 236 kts 230°
2026-05-04 20:29 43.37900 7.15936 5831 ft 223 kts 230°
2026-05-04 20:29 43.37094 7.14190 5705 ft 214 kts 251°
2026-05-04 20:29 43.37204 7.12220 5607 ft 208 kts 294°
2026-05-04 20:29 43.37925 7.10524 5592 ft 208 kts 303°
2026-05-04 20:30 43.38840 7.08977 5462 ft 214 kts 309°
2026-05-04 20:30 43.39821 7.07421 5349 ft 217 kts 309°
2026-05-04 20:30 43.40804 7.05844 5214 ft 218 kts 308°
2026-05-04 20:30 43.41784 7.04242 5068 ft 220 kts 311°
2026-05-04 20:31 43.42754 7.02635 4950 ft 216 kts 312°
2026-05-04 20:31 43.43704 7.01062 4813 ft 210 kts 311°
2026-05-04 20:31 43.44327 7.00024 4712 ft 206 kts 311°
2026-05-04 20:31 43.45232 6.98515 4579 ft 203 kts 311°
2026-05-04 20:32 43.46225 6.97145 4430 ft 202 kts 335°
2026-05-04 20:32 43.47528 6.96916 4335 ft 185 kts 24°
2026-05-04 20:32 43.48555 6.97843 4262 ft 178 kts 42°
2026-05-04 20:32 43.49521 6.98918 4189 ft 177 kts 46°
2026-05-04 20:33 43.50439 7.00064 4056 ft 183 kts 47°
2026-05-04 20:33 43.51357 7.01293 3855 ft 184 kts 49°
2026-05-04 20:33 43.52258 7.02526 3605 ft 180 kts 49°
2026-05-04 20:33 43.53141 7.03746 3377 ft 175 kts 50°
2026-05-04 20:34 43.53989 7.04920 3144 ft 171 kts 49°
2026-05-04 20:34 43.54814 7.06061 2928 ft 166 kts 49°
2026-05-04 20:34 43.55621 7.07178 2704 ft 162 kts 50°
2026-05-04 20:34 43.56409 7.08271 2466 ft 160 kts 51°
2026-05-04 20:35 43.57180 7.09338 2268 ft 159 kts 50°
2026-05-04 20:35 43.57955 7.10405 2061 ft 156 kts 48°
2026-05-04 20:35 43.58708 7.11445 1855 ft 149 kts 49°
2026-05-04 20:35 43.59427 7.12440 1658 ft 145 kts 50°
2026-05-04 20:36 43.60138 7.13425 1452 ft 145 kts 50°
2026-05-04 20:36 43.60841 7.14398 1246 ft 142 kts 47°
2026-05-04 20:36 43.61537 7.15359 1077 ft 144 kts 45°
2026-05-04 20:36 43.62260 7.16336 899 ft 145 kts 45°
2026-05-04 20:37 43.62977 7.17345 688 ft 149 kts 44°
2026-05-04 20:37 43.63707 7.18365 489 ft 148 kts 43°
2026-05-04 20:37 43.64436 7.19368 293 ft 148 kts 43°
2026-05-04 20:37 43.65162 7.20379 86 ft 147 kts 42°
2026-05-04 20:38 43.65848 7.21323 20 ft 117 kts 44°
2026-05-04 20:38 43.66221 7.21833 20 ft 39 kts 45°
2026-05-04 20:38 43.66395 7.21998 21 ft 28 kts 24°
2026-05-04 20:38 43.66515 7.22051 20 ft 13 kts 359°
2026-05-04 20:39 43.66548 7.21972 20 ft 11 kts 243°
2026-05-04 20:39 43.66487 7.21879 20 ft 16 kts 225°
2026-05-04 20:39 43.66392 7.21748 20 ft 21 kts 224°
2026-05-04 20:39 43.66319 7.21617 20 ft 14 kts 284°
2026-05-04 20:40 43.66373 7.21513 20 ft 13 kts 281°
2026-05-04 20:40 43.66357 7.21436 20 ft 5 kts 282°
2026-05-04 20:40 43.66392 7.21416 22 ft 6 kts 350°
2026-05-04 20:40 43.66429 7.21408 20 ft 2 kts 351°
2026-05-04 20:41 43.66434 7.21407 23 ft 0 kts 351°